User: anonymous   Login
Location: Arbon
(43.0005°N, 0.7472°E)
Time: 15:12:37
(UTC+00:00)
Language:

Meteor 1-22 Rocket - Orbit

View from above orbital plane
View from above orbital plane
View from above satellite
View from above satellite

Ground track
Ground track

The orbit data is extracted from the following two-line orbital elements,

1  8294U 75087B   20293.04160819 -.00000103  00000-0 -63397-4 0  9993
2  8294  81.2140 273.5779 0106781 200.3593 159.3306 14.08657303316583
Epoch (UTC): 19 October 2020 00:59:54
Eccentricity: 0.0106781
inclination: 81.2140°
perigee height: 786 km
apogee height: 941 km
right ascension of ascending node: 273.5779°
argument of perigee: 200.3593°
revolutions per day: 14.08657303
mean anomaly at epoch: 159.3306°
orbit number at epoch: 31658

The dashed part of the orbit path shows where the satellite is in the earth's shadow,  

DLR